Hourly Data Report for October 23, 2017

All times are specified in Local Standard Time (LST). Add 1 hour to adjust for Daylight Saving Time where and when it is observed.

ST. PETERS
PRINCE EDWARD ISLAND

46°27'01.000" N
62°34'33.000" W
29.70 m
8300562
71310
ZSP

Download Data

Hourly Data (October 2017)
Hourly Data Report for October 23, 2017
Temp Definition
°C
Dew Point Temp Definition
°C
Rel Hum Definition
%
Wind Dir Definition
10's deg

Wind Spd Definition
km/h
Visibility Definition
km
Stn Press Definition
kPa
Hmdx Definition


Wind Chill Definition


Weather Definition


TIME
00:00 -1.8 -3.1 91 17 4   102.99   -3 LegendNANA
01:00 -0.6 -2.1 90 16 4   102.96   -2 LegendNANA
02:00 0.3 -1.5 88 15 5   102.92     LegendNANA
03:00 0.7 -1.2 87 16 6   102.89     LegendNANA
04:00 0.8 -1.0 88 18 7   102.90     LegendNANA
05:00 1.1 -1.3 84 15 9   102.84     LegendNANA
06:00 1.3 -1.3 83 15 8   102.79     LegendNANA
07:00 2.9 0.7 85 17 10   102.78     LegendNANA
08:00 4.9 1.7 80 17 10   102.72     LegendNANA
09:00 8.0 1.7 64 18 11   102.70     LegendNANA
10:00 10.5 4.1 65 20 17   102.65     LegendNANA
11:00 13.2 5.9 61 21 14   102.59     LegendNANA
12:00 14.8 5.9 55 21 14   102.50     LegendNANA
13:00 15.1 5.8 54 21 17   102.37     LegendNANA
14:00 16.2 6.2 51 21 20   102.29     LegendNANA
15:00 16.6 7.5 55 21 21   102.19     LegendNANA
16:00 16.3 8.4 59 20 19   102.16     LegendNANA
17:00 14.9 8.5 66 19 13   102.09     LegendNANA
18:00 13.1 8.3 73 17 12   102.07     LegendNANA
19:00 12.0 8.4 78 17 13   102.04     LegendNANA
20:00 11.3 8.3 82 18 14   101.99     LegendNANA
21:00 12.8 9.8 82 21 19   101.99     LegendNANA
22:00 12.7 8.9 78 22 19   101.99     LegendNANA
23:00 12.2 8.5 78 22 19   101.97     LegendNANA

Notes on Data Quality.

Legend

  • E = Estimated
  • M = Missing
  • NA = Not Available
  • ‡ = Partner data that is not subject to review by the National Climate Archives
Date modified: